Showing default

EXPLORER 7, 22

Orbit data source: Space-Track

EXPLORER 7, 22 is a payload satellite owned by GSFC (US) in LEO that was launched on Tue, 13 Oct 1959 UTC via a JUNO II launch vehicle from the Air Force Eastern Test Range (AFETR). Payload-class satellites include a variety of spacecraft equipped with specific instruments for various scientific and technological missions. These include communications satellites like Starlink; space stations such as the ISS; scientific satellites like the Hubble; Earth observation satellites from companies like Planet Labs, Umbra, and HawkEye 360; GPS; miniature CubeSats for education and research; and military/defense satellites.

Loading next visibility...
Identifier
22, 1959-009A
Orbit
LEO
Country
Flag of USUS
Related business
Manufacturer
ABMA
Mission
Spacecraft
Bus & Motor
S-1, Unknown motor
Mass
41 kg wet, 41 kg dry
Launch date (UTC)
1959-10-13 (67 years ago)
Launch vehicle
JUNO II
Launch site
Air Force Eastern Test Range (AFETR)
Object type
Payload
Rocket body
Debris
Shape & HBR
Unknown
Radar Cross Section
Medium (>0.1 m² and <1 m²)

Expand to show TLE details & history
Last TLE update: 8 hours ago

TLE from 8 hours ago
0 EXPLORER 7
1 00022U 59009A   26170.49623276  .00009576  00000-0  31920-3 0  9997
2 00022  50.2439  88.7021 0077956 133.9112 226.8319 15.28856975800701
Epoch: 2026-06-19T11:54Z
TLE epoch observation values (Epoch: 2026-06-19T11:54:34.510Z)
Latitude
-0.00004°
Longitude
2.3339°
Altitude
516.6 km
Speed
7.586 km/s
True Right ascension
05h 54m 48s
True Declination
0° 00' 00"
Sunlit
Object was in daylight at epoch
Visualization orbit readout
Latitude
Unknown
Longitude
Unknown
Altitude
Unknown
Speed
Unknown
Apparent Right ascension
Unknown
Apparent Declination
Unknown
Sunlit
N/A
Visualization observer readout
Local Sidereal Time
07:04:56
Azimuth
Unknown
Elevation
Unknown
Doppler factor
Unknown
Orbital elements
Apogee altitude
533.424 km
Perigee altitude
426.498 km
Semi-major axis
6,858.098 km
Eccentricity
0.0078
Inclination
50.2439°
RAAN
88.7021°
Arg. of periapsis
133.9112°
True anomaly
226.18469°
Mean anomaly
226.8319°
Eccentric anomaly
226.50787°
Mean motion
3.82153 °/min
Orbital period
94.2 mins
BSTAR
0.0003192
Loading maneuver chart data...
Computing Atmospheric mass density...
Loading historical data...
Loading historical data...
Loading historical data...
Loading historical data...
Loading historical data...
Loading historical data...
Loading historical data...
Other satellites on launch #9 in the year 1959 (1959-10-13 UTC)

Documentation

Showing up to 5 results
|